Weather History for Shreveport Downtown, LA

Change the Weather History Date:

Sunday, March 10, 2013

  Actual Average (KSHV) Record (KSHV)
Temperature  
Mean Temperature 55 °F 56 °F  
Max Temperature 64 °F 68 °F 87 °F (1911)
Min Temperature 43 °F 45 °F 23 °F (1996)
Degree Days  
Heating Degree Days 10 9  
Month to date heating degree days 103  
Since 1 July heating degree days 1985  
Cooling Degree Days 0 1  
Month to date cooling degree days 8  
Year to date cooling degree days 18  
Growing Degree Days 5 (Base 50)    
Moisture  
Dew Point 50 °F    
Average Humidity 83    
Maximum Humidity 94    
Minimum Humidity 42    
Precipitation  
Precipitation 0.79 in 0.13 in 2.03 in (1952)
Month to date precipitation 1.40  
Year to date precipitation 10.35  
Snow  
Snow 0.00 in - - ()
Month to date snowfall  
Since 1 July snowfall  
Snow Depth -    
Sea Level Pressure  
Sea Level Pressure 29.86 in    
Wind  
Wind Speed 10 mph (West)    
Max Wind Speed 26 mph    
Max Gust Speed 37 mph    
Visibility 8 miles    
Events Rain    
T = Trace of Precipitation, MM = Missing Value Source: NWS Daily Summary

Daily Weather History Graph

Daily Weather History Graph

Search for Another Location

Airport:

Trip Planner

Search our weather history database for the weather conditions in past years. The results will help you decide how hot, cold, wet, or windy it might be!

Date:

Astronomy

Mar. 10, 2013 Rise Set
Actual Time 7:31 AM CDT 7:19 PM CDT
Civil Twilight 7:06 AM CDT 7:44 PM CDT
Nautical Twilight 6:38 AM CDT 8:12 PM CDT
Astronomical Twilight 6:09 AM CDT 8:41 PM CDT
Moon 6:29 AM CDT (3/10) 6:28 PM CDT (3/10)
Length of Visible Light 12h 37m
Length of Day
11h 48m
Waning Crescent, 2% of the Moon is Illuminated
Mar 10
Waning Crescent
Mar 11
New
Mar 19
First Quarter
Mar 27
Full
Apr 2
Last Quarter

Hourly Weather History & Observations

Time (CDT) Temp. Windchill Dew Point Humidity Pressure Visibility Wind Dir Wind Speed Gust Speed Precip Events Conditions
12:39 AM 62.6 °F - 59.0 °F 88% 29.85 in 10.0 mi SSE 9.2 mph - N/A   Overcast
12:53 AM 63.0 °F - 59.0 °F 87% 29.83 in 10.0 mi SSE 9.2 mph - N/A   Overcast
1:53 AM 63.0 °F - 57.9 °F 84% 29.81 in 10.0 mi SSE 11.5 mph - N/A   Overcast
3:53 AM 64.0 °F - 59.0 °F 84% 29.81 in 10.0 mi SSE 12.7 mph - N/A   Overcast
4:26 AM 62.6 °F - 59.0 °F 88% 29.77 in 10.0 mi SE 13.8 mph - N/A   Overcast
4:53 AM 63.0 °F - 59.0 °F 87% 29.74 in 10.0 mi SE 15.0 mph - N/A   Overcast
5:21 AM 62.6 °F - 59.0 °F 88% 29.72 in 10.0 mi SSE 11.5 mph 21.9 mph N/A   Mostly Cloudy
5:53 AM 64.0 °F - 59.0 °F 84% 29.72 in 10.0 mi SSE 13.8 mph - N/A   Overcast
7:53 AM 61.0 °F - 57.9 °F 90% 29.79 in 4.0 mi NW 26.5 mph 36.8 mph 0.10 in Rain Heavy Rain
7:56 AM 55.4 °F - 53.6 °F 94% 29.79 in 1.8 mi NNW 26.5 mph 36.8 mph 0.13 in Rain Heavy Rain
8:06 AM 53.6 °F - 51.8 °F 94% 29.79 in 2.0 mi NNW 16.1 mph 31.1 mph 0.23 in Rain Heavy Rain
8:16 AM 53.6 °F - 51.8 °F 94% 29.78 in 4.0 mi NNW 12.7 mph 21.9 mph 0.26 in Rain Heavy Rain
8:24 AM 53.6 °F - 51.8 °F 94% 29.79 in 4.0 mi North 8.1 mph 20.7 mph 0.27 in Rain Light Rain
8:49 AM 53.6 °F - 51.8 °F 94% 29.83 in 2.5 mi NW 6.9 mph - 0.31 in Rain Rain
8:53 AM 53.1 °F - 51.1 °F 93% 29.83 in 2.5 mi NW 6.9 mph - 0.32 in Rain Rain
9:23 AM 53.6 °F - 51.8 °F 94% 29.87 in 1.8 mi NW 8.1 mph - 0.15 in Rain Heavy Rain
9:36 AM 53.6 °F - 51.8 °F 94% 29.87 in 2.0 mi NW 8.1 mph - 0.21 in Rain Heavy Rain
9:44 AM 53.6 °F - 51.8 °F 94% 29.87 in 3.0 mi NW 8.1 mph - 0.23 in Rain Rain
9:53 AM 53.1 °F - 51.1 °F 93% 29.87 in 3.0 mi NW 6.9 mph - 0.26 in Rain Light Rain
10:53 AM 53.1 °F - 51.1 °F 93% 29.86 in 5.0 mi Calm Calm - 0.04 in Rain Rain
11:53 AM 53.1 °F - 51.1 °F 93% 29.86 in 10.0 mi Calm Calm - 0.05 in Rain Light Rain
12:00 PM 53.6 °F - 51.8 °F 94% 29.85 in 10.0 mi Calm Calm - 0.01 in Rain Light Rain
12:53 PM 54.0 °F - 52.0 °F 93% 29.88 in 10.0 mi South 5.8 mph - 0.01 in Rain Light Rain
1:07 PM 55.4 °F - 51.8 °F 88% 29.87 in 10.0 mi South 5.8 mph - 0.00 in   Overcast
1:28 PM 55.4 °F - 53.6 °F 94% 29.90 in 10.0 mi SSW 9.2 mph - 0.00 in   Overcast
1:44 PM 55.4 °F - 53.6 °F 94% 29.90 in 10.0 mi SSW 8.1 mph - 0.00 in Rain Light Rain
1:53 PM 55.9 °F - 52.0 °F 87% 29.88 in 10.0 mi South 4.6 mph 17.3 mph 0.00 in   Overcast
2:05 PM 55.4 °F - 53.6 °F 94% 29.87 in 9.0 mi South 4.6 mph - 0.01 in Rain Light Rain
2:35 PM 57.2 °F - 51.8 °F 82% 29.86 in 10.0 mi SSW 5.8 mph - 0.01 in   Overcast
2:53 PM 57.0 °F - 52.0 °F 83% 29.86 in 10.0 mi South 4.6 mph - 0.01 in   Overcast
3:53 PM 59.0 °F - 52.0 °F 78% 29.86 in 10.0 mi West 5.8 mph - N/A   Mostly Cloudy
4:04 PM 60.8 °F - 51.8 °F 72% 29.86 in 10.0 mi West 9.2 mph - N/A   Overcast
4:53 PM 62.1 °F - 45.0 °F 53% 29.85 in 10.0 mi West 13.8 mph 19.6 mph N/A   Scattered Clouds
5:53 PM 61.0 °F - 37.9 °F 42% 29.85 in 10.0 mi West 15.0 mph - N/A   Clear
6:53 PM 57.0 °F - 37.9 °F 49% 29.88 in 10.0 mi WNW 11.5 mph 21.9 mph N/A   Clear
7:53 PM 51.1 °F - 37.9 °F 61% 29.92 in 10.0 mi NW 13.8 mph 25.3 mph N/A   Clear
9:53 PM 46.0 °F 41.9 °F 33.1 °F 61% 30.01 in 10.0 mi NW 8.1 mph - N/A   Clear
10:53 PM 46.9 °F - 34.0 °F 61% 30.02 in 10.0 mi NW 8.1 mph - N/A   Overcast
11:53 PM 46.0 °F 39.9 °F 34.0 °F 63% 30.01 in 10.0 mi NW 13.8 mph 21.9 mph N/A   Overcast
12:53 AM 43.0 °F 36.8 °F 28.9 °F 58% 30.03 in 10.0 mi WNW 11.5 mph 23.0 mph N/A   Clear